カタログに戻る

EXPRESS 103

運用中通信GEO
NORAD 45985·PAYLOAD·🇷🇺 Russia

打ち上げ Jul 30, 2020 から Baikonur Cosmodrome

Loading…

TLE

最新Source: Space-Track

元期: Sep 14, 2026, 15:58 UTC

1 45985U 20053A   26257.66549475 -.00000288  00000-0  00000+0 0  9997
2 45985   0.0413 260.7662 0000950 205.4879 223.4688  1.00272671 22541

AllMySatでEXPRESS 103をリアルタイム追跡

Download on the App Store